Showing default

KUIPER-00021, 63736

Orbit data source: Space-Track

KUIPER-00021, 63736 is a payload satellite owned by Kuiper Systems (US) in LEO that was launched on Mon, 28 Apr 2025 UTC via an ATLAS V 551 launch vehicle from the Air Force Eastern Test Range (AFETR). Payload-class satellites include a variety of spacecraft equipped with specific instruments for various scientific and technological missions. These include communications satellites like Starlink; space stations such as the ISS; scientific satellites like the Hubble; Earth observation satellites from companies like Planet Labs, Umbra, and HawkEye 360; GPS; miniature CubeSats for education and research; and military/defense satellites.

Loading next visibility...
Identifier
63736, 2025-088N
Orbit
LEO
Country
Flag of USUS
Related business
Manufacturer
Kuiper Systems
Mission
Operational Commercial Communications
Bus & Motor
KUIPER, Unknown motor
Mass
~490 kg wet, ~490 kg dry
Launch date (UTC)
2025-04-28 (8 months ago)
Launch vehicle
ATLAS V 551
Launch site
Air Force Eastern Test Range (AFETR)
Object type
Payload
Rocket body
Debris
Shape & HBR
Box + 2 Pan, 3.4 m
Radar Cross Section
2.326 m², Large (>1 m²)

Expand to show TLE details & history
Last TLE update: 1 day ago

TLE from 1 day ago
0 KUIPER-00021
1 63736U 25088N   25348.36039738  .00003820  00000-0  53018-3 0  9992
2 63736  51.9012 121.4034 0007598 151.2348 208.9034 14.79902611 34848
Epoch: 2025-12-14T08:38Z
TLE epoch observation values (Epoch: 2025-12-14T08:38:58.333Z)
Latitude
-0.00008°
Longitude
-91.61414°
Altitude
635.04 km
Speed
7.539 km/s
True Right ascension
08h 05m 36s
True Declination
0° 00' 00"
Sunlit
Object was in full shadow at epoch
Visualization orbit readout
Latitude
Unknown
Longitude
Unknown
Altitude
Unknown
Speed
Unknown
Apparent Right ascension
Unknown
Apparent Declination
Unknown
Sunlit
N/A
Visualization observer readout
Local Sidereal Time
15:11:08
Azimuth
Unknown
Elevation
Unknown
Doppler factor
Unknown
Orbital elements
Apogee altitude
635.407 km
Perigee altitude
624.758 km
Semi-major axis
7,008.22 km
Eccentricity
0.00076
Inclination
51.9012°
RAAN
121.4034°
Arg. of periapsis
151.2348°
True anomaly
208.86135°
Mean anomaly
208.9034°
Eccentric anomaly
208.88237°
Mean motion
3.6994 °/min
Orbital period
97.31 mins
BSTAR
0.00053018
Loading maneuver chart data...
Computing Atmospheric mass density...
Loading historical data...
Loading historical data...
Loading historical data...
Loading historical data...
Loading historical data...
Loading historical data...
Loading historical data...

Documentation

Showing up to 5 results
|